User: anonymous   Login
Location: Unspecified
(0.0000°N, 0.0000°E)
Time: 13:05:48
(UTC+00:00)
Language:

NOSS 2-2 (D) - Orbit

View from above orbital plane
View from above orbital plane
View from above satellite
View from above satellite

Ground track
Ground track

The orbit data is extracted from the following two-line orbital elements,

1 21808U 91076D   21008.77084331 0.00000250  00000-0  43968-4 0    00
2 21808  63.3244 330.8117 0855591  41.1517 318.8483 13.41425099    01
Epoch (UTC): 08 January 2021 18:30:00
Eccentricity: 0.0855591
inclination: 63.3244°
perigee height: 464 km
apogee height: 1744 km
right ascension of ascending node: 330.8117°
argument of perigee: 41.1517°
revolutions per day: 13.41425099
mean anomaly at epoch: 318.8483°
orbit number at epoch: 0

The dashed part of the orbit path shows where the satellite is in the earth's shadow,  

DLR